{"data":{"norad_id":52629,"epoch":"2026-05-25T01:59:35.744640Z","epoch_age_seconds":78158,"freshness":"FRESH","line1":"1 52629U 22052AH  26145.08305260  .00001510  00000+0  11303-3 0  9994","line2":"2 52629  53.2135 286.1373 0001547  88.2394 271.8775 15.08820137222521","mean_motion":15.08820137,"eccentricity":0.0001547,"inclination_deg":53.2135,"raan_deg":286.1373,"arg_perigee_deg":88.2394,"mean_anomaly_deg":271.8775,"bstar":0.00011303,"rev_number":22252,"period_min":95.438811074139,"perigee_km":538.73389738623,"apogee_km":540.87430836346,"semimajor_km":6917.9411028748,"source":"CELESTRAK","updated_at":"2026-05-25T13:38:17.203514Z"}}